Grand Marais, MN

3:18 PM CST on December 06, 2019 (GMT -0600)
Grand Marais

Weather History for KGNA - October, 2019

Change the Weather History Date:

Tuesday, October 22, 2019

  Actual Average (KCKC) Record (KCKC)
Temperature  
Mean Temperature 46 °F -  
Max Temperature 48 °F 43 °F 64 °F (1998)
Min Temperature 43 °F 30 °F 19 °F (2002)
Degree Days  
Heating Degree Days 20    
Moisture  
Dew Point 43 °F    
Average Humidity 89    
Maximum Humidity 97    
Minimum Humidity 80    
Precipitation  
Precipitation 0.09 in - - ()
Sea Level Pressure  
Sea Level Pressure 29.22 in    
Wind  
Wind Speed 6 mph (SW)    
Max Wind Speed 15 mph    
Max Gust Speed 28 mph    
Averages and records for this station are not official NWS values.
T = Trace of Precipitation, MM = Missing Value Source: NWS Daily Summary

Daily Weather History Graph

Daily Weather History Graph

Search for Another Location

Airport or City:

Astronomy

Oct. 22, 2019 Rise Set
Actual Time 7:30 AM CDT 6:00 PM CDT
Civil Twilight 6:58 AM CDT 6:32 PM CDT
Nautical Twilight 6:22 AM CDT 7:07 PM CDT
Astronomical Twilight 5:47 AM CDT 7:43 PM CDT
Moon 12:03 AM CDT (10/22) 3:43 PM CDT (10/22)
Length of Visible Light 11h 33m
Length of Day
10h 30m
Last Quarter, 37% of the Moon is Illuminated
Oct 22
Last Quarter
Oct 27
New
Nov 4
First Quarter
Nov 12
Full
Nov 19
Last Quarter

Hourly Weather History & Observations

Time (CDT) Temp. Windchill Dew Point Humidity Pressure Visibility Wind Dir Wind Speed Gust Speed Precip Events Conditions
12:56 AM 48.9 °F - 46.9 °F 93% 29.21 in - South 4.6 mph - N/A   Unknown
1:56 AM 48.0 °F - 46.9 °F 96% 29.20 in - Calm Calm - 0.03 in   Unknown
2:56 AM 48.0 °F - 46.0 °F 93% 29.20 in - East 3.5 mph - N/A   Unknown
4:56 AM 46.9 °F - 43.0 °F 86% 29.19 in - Calm Calm - N/A   Unknown
5:56 AM 46.9 °F - 43.0 °F 86% 29.18 in - SSE 5.8 mph - N/A   Unknown
6:56 AM 46.9 °F - 43.0 °F 86% 29.17 in - SSE 10.4 mph - N/A   Unknown
7:56 AM 46.9 °F - 44.1 °F 90% 29.16 in - SSE 10.4 mph - N/A   Unknown
8:56 AM 46.9 °F - 44.1 °F 90% 29.16 in - SSE 9.2 mph - N/A   Unknown
9:56 AM 46.9 °F - 44.1 °F 90% 29.16 in - South 3.5 mph - N/A   Unknown
11:56 AM 46.0 °F - 44.1 °F 93% 29.16 in - Calm Calm - 0.02 in   Unknown
12:56 PM 46.0 °F 43.1 °F 45.0 °F 96% 29.16 in - SSW 5.8 mph - 0.02 in   Unknown
1:56 PM 46.9 °F - 45.0 °F 93% 29.16 in - SW 6.9 mph - N/A   Unknown
2:56 PM 46.9 °F - 45.0 °F 93% 29.17 in - SW 8.1 mph - N/A   Unknown
3:56 PM 46.9 °F - 46.0 °F 97% 29.19 in - WSW 3.5 mph - 0.01 in   Unknown
4:56 PM 48.0 °F - 45.0 °F 89% 29.21 in - Variable 4.6 mph - N/A   Unknown
5:56 PM 45.0 °F 40.6 °F 42.1 °F 90% 29.23 in - NW 8.1 mph - 0.01 in   Unknown
6:56 PM 44.1 °F 37.1 °F 39.9 °F 85% 29.25 in - NW 15.0 mph 27.6 mph N/A   Unknown
7:56 PM 44.1 °F 38.6 °F 39.0 °F 82% 29.30 in - West 10.4 mph 18.4 mph N/A   Unknown
8:56 PM 44.1 °F 39.0 °F 39.0 °F 82% 29.32 in - West 9.2 mph 23.0 mph N/A   Unknown
9:56 PM 43.0 °F 38.2 °F 37.0 °F 80% 29.35 in - WSW 8.1 mph 18.4 mph N/A   Unknown
10:56 PM 43.0 °F 37.7 °F 37.0 °F 80% 29.37 in - West 9.2 mph 19.6 mph N/A   Unknown
11:56 PM 43.0 °F 37.2 °F 37.0 °F 80% 29.39 in - WSW 10.4 mph 19.6 mph N/A   Unknown